Regional Weather Roundup
Issued by NWS

Home | Current Version | Previous Version | Graphics & Text | Print | Product List | Glossary On
Versions: 1 2 3 4 5 6 7 8 9 10 11 12 13 14 15 16 17 18 19 20 21 22 23 24 25 26 27 28 29 30 31 32 33 34 35 36 37 38 39 40 41 42 43 44 45 46 47 48 49 50
000
ASUS43 KBIS 112002
RWRND

NORTH DAKOTA REGIONAL WEATHER ROUNDUP
NATIONAL WEATHER SERVICE BISMARCK ND
200 PM CST MON DEC 11 2017

NOTE: "FAIR" INDICATES FEW OR NO CLOUDS BELOW 12,000 FEET WITH NO
SIGNIFICANT WEATHER AND/OR OBSTRUCTIONS TO VISIBILITY.


NDZ001>003-009>011-017-112100-
NORTHWEST NORTH DAKOTA

CITY           SKY/WX    TMP DP  RH WIND       PRES   REMARKS
WILLISTON      CLOUDY    38  27  64 N15       30.35S
MINOT          MOSUNNY   31  20  63 N10       30.29S
MINOT AFB      PTSUNNY   30  20  66 N9        30.28S
$$

NDZ018>021-031>035-040>046-112100-
SOUTHWEST NORTH DAKOTA

CITY           SKY/WX    TMP DP  RH WIND       PRES   REMARKS
BISMARCK       PTSUNNY   37  24  59 N16       30.28R
DICKINSON      CLOUDY    35  30  82 NW23      30.29R
GARRISON         N/A     34  23  64 N13       30.27S
HETTINGER ARPT CLOUDY    36  28  73 NW23G31   30.31R
$$

NDZ004>008-012>016-024-026-027-054-112100-
NORTHEAST NORTH DAKOTA

CITY           SKY/WX    TMP DP  RH WIND       PRES   REMARKS
GRAND FORKS    PTSUNNY   16  10  77 N28       30.24R WCI  -4
GRND FRKS AFB  MOSUNNY   18  10  69 N22       30.25R WCI   1
DEVILS LAKE    PTSUNNY   20  13  74 N21       30.26S WCI   4
$$

NDZ022-023-025-028>030-036>039-047>053-112100-
SOUTHEAST NORTH DAKOTA

CITY           SKY/WX    TMP DP  RH WIND       PRES   REMARKS
FARGO          MIX PCPN  20  14  77 N29G39    30.20R WCI   1
JAMESTOWN      CLOUDY    23  16  74 N22G30    30.23R WCI   8
$$




USA.gov is the U.S. government's official web portal to all federal, state and local government web resources and services.